Content
SEND FEEDBACK

Daily
Averages
Monthly
Summary
United States of America

ALPINE MEADOWS, CALIFORNIA


Home > North America > United States > California
Elevation: 6230 feet     Latitude: 39 12N     Longitude: 120 14W

WEATHER
 
SELECT A DAY
Number of Records: 286,503;   Date Range: 1/1/95 - 9/30/14
 
SHARE

PRINT THIS DATA

[ ← Previous Day ]
WEATHER ALMANAC - NOVEMBER 21, 2013
[ Next Day → ]
[ °C ]   °F
Weather ElementAverageHighLow
Temperature27.6 °F32 °F (12:35 am)19.4 °F (11:15 pm)
Dewpoint20.6 °F32 °F (12:35 am)12.2 °F (9:35 pm)
Humidity75.8 %100 % (12:35 am)55 % (9:35 pm)
Barometer30.10 in30.23 in (11:35 pm)29.93 in (12:35 am)
Wind Speed9 mph23 mph (2:45 pm)
Wind Gust32.2 mph (2:45 pm)
Weather ElementAverage
Visibility9.9 mi
Wind DirectionSE (140.4 °)

Weather ElementTotal
Precipitation0.01 in
Heating Degree Days39.3 (Base 65)
Averaged from 49 records on November 21, 2013
WEATHER CONDITIONS BREAKOUT
WIND DIRECTION BREAKOUT
WEATHER BY HOUR - NOVEMBER 21, 2013
[ °C ]   °F
Local TimeTemperatureDewpointHumidityBarometerVisibilityWind DirectionWind SpeedGust SpeedPrecipitationEventsConditions
12:35 AM32.0 °F32.0 °F100 %29.93 in10.0 miCalmMostly Cloudy
12:55 AM32.0 °F32.0 °F100 %29.93 in10.0 miNNW (340°)3.5 mph0.01 inOvercast
1:15 AM32.0 °F30.2 °F93 %29.93 in10.0 miNNW (340°)4.6 mphOvercast
1:35 AM32.0 °F28.4 °F87 %29.93 in10.0 miNorth (350°)6.9 mphOvercast
1:55 AM32.0 °F28.4 °F87 %29.94 in10.0 miNorth (360°)4.6 mphOvercast
2:15 AM32.0 °F28.4 °F87 %29.94 in10.0 miNorth (350°)6.9 mphOvercast
2:35 AM32.0 °F28.4 °F87 %29.94 in10.0 miNorth (360°)6.9 mphOvercast
2:55 AM32.0 °F28.4 °F87 %29.95 in10.0 miNNW (330°)8.1 mphOvercast
3:15 AM32.0 °F28.4 °F87 %29.95 in10.0 miNNW (340°)9.2 mphMostly Cloudy
3:35 AM32.0 °F28.4 °F87 %29.95 in10.0 miNNW (330°)9.2 mphOvercast
3:55 AM32.0 °F28.4 °F87 %29.96 in10.0 miNNW (340°)8.1 mphOvercast
4:15 AM32.0 °F28.4 °F87 %29.96 in10.0 miNorth (350°)6.9 mphMostly Cloudy
4:35 AM30.2 °F26.6 °F86 %29.96 in10.0 miNorth (10°)13.8 mph18.4 mphOvercast
4:55 AM30.2 °F26.6 °F86 %29.97 in10.0 miNorth (10°)15.0 mph21.9 mphOvercast
5:15 AM30.2 °F26.6 °F86 %29.98 in10.0 miNNE (30°)15.0 mph23.0 mphOvercast
5:35 AM28.4 °F24.8 °F86 %29.99 in10.0 miNorth (10°)15.0 mph20.7 mphOvercast
6:55 AM26.6 °F21.2 °F80 %30.03 in10.0 miNorth (10°)15.0 mph23.0 mphOvercast
7:55 AM26.6 °F21.2 °F80 %30.06 in10.0 miNorth (10°)11.5 mph17.3 mphOvercast
8:45 AM26.6 °F21.2 °F80 %30.07 in10.0 miNNE (20°)17.3 mph23.0 mphMostly Cloudy
9:55 AM26.6 °F19.4 °F74 %30.10 in10.0 miNNE (30°)9.2 mphOvercast
10:55 AM26.6 °F19.4 °F74 %30.11 in10.0 miNNE (20°)11.5 mph16.1 mphOvercast
11:45 AM26.6 °F21.2 °F80 %30.10 in10.0 miNNE (20°)11.5 mph16.1 mphOvercast
12:45 PM26.6 °F21.2 °F80 %30.10 in8.0 miNNE (20°)12.7 mphOvercast
1:45 PM26.6 °F19.4 °F74 %30.11 in8.0 miNE (40°)16.1 mph24.2 mphOvercast
2:45 PM26.6 °F17.6 °F69 %30.12 in8.0 miNNE (20°)23.0 mph32.2 mphOvercast
3:45 PM26.6 °F15.8 °F64 %30.15 in10.0 miNNE (20°)19.6 mph26.5 mphMostly Cloudy
4:45 PM26.6 °F17.6 °F69 %30.17 in10.0 miCalmMostly Cloudy
4:55 PM26.6 °F17.6 °F69 %30.17 in10.0 miCalmOvercast
5:15 PM26.6 °F17.6 °F69 %30.17 in10.0 miNW (320°)9.2 mphOvercast
5:35 PM26.6 °F17.6 °F69 %30.18 in10.0 miNNW (340°)5.8 mphOvercast
5:55 PM26.6 °F17.6 °F69 %30.18 in10.0 miSW (220°)3.5 mphOvercast
6:15 PM26.6 °F17.6 °F69 %30.18 in10.0 miNW (310°)3.5 mphMostly Cloudy
6:35 PM26.6 °F17.6 °F69 %30.19 in10.0 miNNW (330°)4.6 mphOvercast
6:55 PM26.6 °F17.6 °F69 %30.19 in10.0 miENE (60°)4.6 mphOvercast
7:15 PM26.6 °F15.8 °F64 %30.19 in10.0 miNE (40°)10.4 mphMostly Cloudy
7:35 PM26.6 °F15.8 °F64 %30.19 in10.0 miNNE (20°)15.0 mph24.2 mphPartly Cloudy
7:55 PM26.6 °F15.8 °F64 %30.19 in10.0 miNNE (20°)10.4 mph19.6 mphClear
8:15 PM26.6 °F15.8 °F64 %30.19 in10.0 miNE (40°)10.4 mphClear
8:35 PM26.6 °F14.0 °F59 %30.19 in10.0 miNE (40°)18.4 mph21.9 mphClear
8:55 PM26.6 °F14.0 °F59 %30.19 in10.0 miNNE (30°)16.1 mph21.9 mphClear
9:15 PM26.6 °F14.0 °F59 %30.20 in10.0 miENE (60°)6.9 mph19.6 mphClear
9:35 PM26.6 °F12.2 °F55 %30.20 in10.0 miNE (50°)9.2 mphClear
9:55 PM24.8 °F14.0 °F64 %30.21 in10.0 miCalmClear
10:15 PM24.8 °F14.0 °F64 %30.21 in10.0 miWNW (290°)6.9 mphClear
10:35 PM24.8 °F14.0 °F64 %30.22 in10.0 miNW (310°)10.4 mphClear
10:55 PM23.0 °F14.0 °F68 %30.22 in10.0 miNE (50°)3.5 mphClear
11:15 PM19.4 °F14.0 °F80 %30.22 in10.0 miCalmClear
11:35 PM19.4 °F14.0 °F80 %30.23 in10.0 miSSE (160°)4.6 mphClear
11:55 PM19.4 °F14.0 °F80 %30.23 in10.0 miSE (130°)5.8 mphClear
Hourly data recorded from KTRK, located miles away from Alpine Meadows, California







STORIES FROM OUR PARTNERS